Regional Weather Roundup
Issued by NWS Charleston, SC

Current Version | Previous Version | Text Only | Print | Product List | Glossary Off
Versions: 1 2 3 4 5 6 7 8 9 10 11 12 13 14 15 16 17 18 19 20 21 22 23 24 25 26 27 28 29 30 31 32 33 34 35 36 37 38 39 40 41 42 43 44 45 46 47 48 49 50

000
ASUS42 KCHS 290725
RWRCHS

REGIONAL WEATHER ROUNDUP
NATIONAL WEATHER SERVICE CHARLESTON SC
200 AM EST MON DEC 29 2014

NOTE: "FAIR" INDICATES FEW OR NO CLOUDS BELOW 12,000 FEET WITH NO
SIGNIFICANT WEATHER AND/OR OBSTRUCTIONS TO VISIBILITY.

NOT ALL STATIONS ARE QUALITY CONTROLLED BY THE NATIONAL
WEATHER SERVICE. USE DATA WITH CAUTION...ESPECIALLY
DEWPOINT OBSERVATIONS.

SCZ027-030-031-034>040-042>050-290800-
...SOUTHEAST SOUTH CAROLINA...

CITY           SKY/WX    TMP DP  RH WIND       PRES   REMARKS
N CHARLESTON   PTCLDY    59  57  94 S5        30.04S FOG
WATERFRONT PRK   N/A     61 N/A N/A SW6         N/A
MOUNT PLEASANT FAIR      63  63 100 S5        30.04S FOG
PINOPOLIS        N/A    N/A N/A N/A CALM      29.97S
MONCKS CORNER  FOG       59  57  94 CALM      30.04S VSB 3/4
SUMMERVILLE    CLOUDY    57  57 100 CALM      30.05S FOG
BEAUFORT MCAS  CLEAR     60  58  92 SE5       30.04S FOG
BEAUFORT ARPT  FOG       59  59 100 CALM      30.03F VSB 3/4
HILTON HEAD IS CLEAR     61  61 100 S6        30.05F
WALTERBORO     FOG       59 N/A N/A CALM      30.04S VSB 1
ALLENDALE      FOG       57  57 100 CALM      30.01F VSB 1/2

...SOUTHERN MIDLANDS AND PEE DEE...

CITY           SKY/WX    TMP DP  RH WIND       PRES   REMARKS
GEORGETOWN     NOT AVBL
KINGSTREE      NOT AVBL
ORANGEBURG     CLOUDY    61  58  90 CALM      30.03F
BARNWELL         N/A     61  61 100 S3        30.02F
AIKEN          CLOUDY    59  59 100 CALM      30.04F FOG
MANNING        CLOUDY    59 N/A N/A CALM      30.03F
COLUMBIA       CLOUDY    59  58  96 CALM      30.01F FOG
SUMTER         CLOUDY    58  58  97 S2        30.01F
FLORENCE       CLOUDY    61  58  90 E3        30.03F
MYRTLE BEACH   CLOUDY    61  57  88 CALM      30.05S
N MYRTLE BEACH CLOUDY    59  57  93 CALM      30.04S

$$

GAZ063-065-086>088-099>101-113>116-118-119-134>141-150-290800-
...SOUTHEAST GEORGIA...

CITY           SKY/WX    TMP DP  RH WIND       PRES   REMARKS
SAVANNAH ARPT  PTCLDY    61  59  94 S6        30.05F FOG
HUNTER AAF     CLEAR     59  59 100 S2        30.03F FOG
FORT STEWART   PTCLDY    61  59  94 SE5       30.03F FOG
STATESBORO     PTCLDY    64  64 100 S5        30.03F
SYLVANIA       PTSUNNY   62  62 100 S3        30.04S
CLAXTON        FOG       59  59 100 CALM      30.04S VSB<1/4

...CSRA...CENTRAL AND FAR SOUTHEAST GEORGIA...

CITY           SKY/WX    TMP DP  RH WIND       PRES   REMARKS
THOMSON        CLOUDY    61  61 100 CALM      30.07S VSB 3/4
AUGUSTA-BUSH   CLOUDY    59  58  96 CALM      30.01F
AUGUSTA-DANIEL CLOUDY    62  60  93 SE5       30.01F
SWAINSBORO     CLOUDY   N/A N/A N/A S3        30.03S
VIDALIA        MOCLDY    63  63 100 SW9       30.04S
EASTMAN        CLOUDY    64  64 100 SW7       30.05S
HAZLEHURST     CLOUDY    65  65  99 SW6       30.03F
ALMA           CLOUDY    64  62  93 SW7       30.04F
WAYCROSS       CLOUDY    67  67  99 SW10      30.05S FOG
JESUP          FAIR      63  63 100 SW5       30.05F FOG
BAXLEY         CLOUDY    64  63  94 SW3       30.04S
BRUNSWICK      CLEAR     64  63  94 SW7       30.07F
SAINT SIMONS   PTCLDY    64  62  93 SW7       30.08R

$$

SCZ027-028-034-036>038-045-046-048>050-GAZ119-141-290800-
...LAKE AND SUPPLEMENTAL COASTAL OBSERVATIONS...

STATION/POSITION TIME  TEMP    WIND        PRES    WAVE   SWELL
                       AIR SEA DIR/SP/G            HT/PER HT/PER/DIR
                 (UTC) (F)     (DEG/KT/KT) (MB)    (FT/S) (FT/S/D)
UPR LAKE MARION  NOT AVBL
WINYAH BAY       0700   58     210/  2     1016.0S
LAKE MURRAY      0700   57      CALM  /  1 1016.3R
ACE BASIN NERRS  0700   56        CALM     1017.0S
FORT PULASKI     0700   60 57  180/  2/  5 1017.8F
SAPELO ISLAND    0700   61     170/  5     1018.0S

$$

ANZ835-935-AMZ111-154-330-350-352-354-370-450-454-472-290800-
...C-MAN AND BUOY OBSERVATIONS...

STATION/POSITION TIME  TEMP    WIND        PRES    WAVE   SWELL
                       AIR SEA DIR/SP/G            HT/PER HT/PER/DIR
                 (UTC) (F)     (DEG/KT/KT) (MB)    (FT/S) (FT/S/D)
BUOY 41004       0700   72 73  220/ 12/ 16 1017.0S   3/12   2/12
BUOY 41008       0700   62 59  230/  6/  8 1018.1R   2/13   2/110/13
FOLLY BEACH CMAN 0700   59     220/ 10/ 11 1017.9R
CAPERS NEARSHORE 0600   58     210/  6/  6   N/A
FRIPP NEARSHORE  NOT AVBL


STATION/POSITION TIME  TEMP    WIND        PRES    WAVE   SWELL
                       AIR SEA DIR/SP/G            HT/PER HT/PER/DIR
                 (UTC) (F)     (DEG/KT/KT) (MB)    (FT/S) (FT/S/D)
5E ST. MARYS GA  0700      62                N/A     2/14   2/100/14
FRYING PAN BUOY  0700   64 68  280/  8/  8 1018.1F   3/13   3/110/13
BUOY 41025       0700   64                 1017.6R   3/12
CAPE LOOKOUT NC  0700   58     290/  4/  5 1017.4F
BUOY 41002       0605   73 74  210/ 16/ 19 1019.8S   4/11   3/ 80/11
BUOY 41010       0700   76 77  180/ 12/ 12 1020.1F   4/14   3/ 90/14
ST AUGUSTINE FL  0700   65     260/  5/  6 1019.6R


$$



USA.gov is the U.S. government's official web portal to all federal, state and local government web resources and services.